Tracking 31027 objects as of 19-Jul-2025
HD Live streaming from Space Station
objects crossing your sky now

GOES 1 (SMS-C)

Track GOES 1 (SMS-C) now!
GOES 1 (SMS-C) is classified as:


NORAD ID: 8366
Int'l Code: 1975-100A
Perigee: 35,788.7 km
Apogee: 35,815.6 km
Inclination: 5.5 °
Period: 1,436.5 minutes
Semi major axis: 42173 km
RCS: 3.1655 m2 (large)
Launch date: October 16, 1975
Source: United States (US)
Launch site: AIR FORCE EASTERN TEST RANGE (AFETR)
Your satellite tracking list
CZ-4C DEB
Track 1 satellite(s)




NASA's NSSDC Master Catalog

Two Line Element Set (TLE):
1 08366U 75100A   25199.33661157 -.00000180  00000-0  00000-0 0  9994
2 08366   5.4589 281.5822 0003185 316.3895  92.5796  1.00241783181729
Source of the keplerian elements: AFSPC